Yakutat, AK

10:59 AM AKDT on March 30, 2017 (GMT -0800)
Yakutat

Weather History for PAYA - October, 2012

Change the Weather History Date:

Friday, October 5, 2012

  Actual Average Record
Temperature  
Mean Temperature 51 °F 45 °F  
Max Temperature 52 °F 51 °F 61 °F (1975)
Min Temperature 49 °F 38 °F 25 °F (1954)
Degree Days  
Heating Degree Days 14 21  
Month to date heating degree days 106 101  
Since 1 July heating degree days 1368 1277  
Cooling Degree Days 0    
Month to date cooling degree days 0  
Year to date cooling degree days 0  
Moisture  
Dew Point 50 °F    
Average Humidity 0    
Maximum Humidity 0    
Minimum Humidity 0    
Precipitation  
Precipitation 0.32 in 0.82 in 3.50 in (1955)
Month to date precipitation 2.01 4.07  
Year to date precipitation 88.09 106.48  
Snow  
Snow 0.00 in 0.10 in 2.70 in (1958)
Month to date snowfall 0.0 0.1  
Since 1 July snowfall T 0.1  
Since 1 September snowfall 0.0 0.1  
Snow Depth 0.00 in    
Sea Level Pressure  
Sea Level Pressure 30.48 in    
Wind  
Wind Speed 3 mph (ESE)    
Max Wind Speed 10 mph    
Max Gust Speed 15 mph    
Visibility 2 miles    
Events Fog , Rain    
T = Trace of Precipitation, MM = Missing Value Source: NWS Daily Summary

Daily Weather History Graph

Daily Weather History Graph

Search for Another Location

Airport or City:

Trip Planner

Search our weather history database for the weather conditions in past years. The results will help you decide how hot, cold, wet, or windy it might be!

Date:

Astronomy

Oct. 05, 2012 Rise Set
Actual Time 7:34 AM AKDT 6:37 PM AKDT
Civil Twilight 6:53 AM AKDT 7:18 PM AKDT
Nautical Twilight 6:06 AM AKDT 8:05 PM AKDT
Astronomical Twilight 5:16 AM AKDT 8:54 PM AKDT
Moon 8:54 PM AKDT (10/5) 2:03 PM AKDT (10/5)
Length of Visible Light 12h 24m
Length of Day
11h 02m
Waning Gibbous, 73% of the Moon is Illuminated
Oct 5
Waning Gibbous
Oct 7
Last Quarter
Oct 15
New
Oct 21
First Quarter
Oct 29
Full

Hourly Weather History & Observations

Time (AKDT) Temp. Dew Point Humidity Pressure Visibility Wind Dir Wind Speed Gust Speed Precip Events Conditions
12:13 AM 50.0 °F 48.2 °F 94% 30.43 in 2.0 mi ESE 10.4 mph 16.1 mph 0.00 in Rain Light Rain
12:35 AM 50.0 °F 48.2 °F 94% 30.43 in 4.0 mi SE 9.2 mph 16.1 mph 0.01 in Rain Light Rain
12:45 AM 50.0 °F 48.2 °F 94% 30.43 in 2.5 mi SE 9.2 mph 17.3 mph 0.02 in Rain Light Rain
12:53 AM 50.0 °F 48.9 °F 96% 30.44 in 2.5 mi SE 8.1 mph - 0.04 in Rain Rain
1:10 AM 50.0 °F 48.2 °F 94% 30.45 in 3.0 mi SE 6.9 mph - 0.03 in Rain Light Rain
1:29 AM 50.0 °F 48.2 °F 94% 30.45 in 2.5 mi ESE 9.2 mph - 0.06 in Rain Light Rain
1:42 AM 50.0 °F 48.2 °F 94% 30.44 in 3.0 mi ESE 8.1 mph - 0.07 in Rain Light Rain
1:53 AM 50.0 °F 48.9 °F 96% 30.45 in 5.0 mi SE 6.9 mph - 0.08 in Rain Light Rain
2:53 AM 50.0 °F 48.9 °F 96% 30.45 in 4.0 mi ESE 5.8 mph - 0.01 in   Overcast
3:15 AM 50.0 °F 48.2 °F 94% 30.45 in 2.5 mi ESE 4.6 mph - N/A   Overcast
3:53 AM 48.9 °F 48.9 °F 100% 30.45 in 3.0 mi East 5.8 mph - 0.03 in Rain Light Rain
4:53 AM 48.9 °F 48.9 °F 100% 30.45 in 4.0 mi ESE 5.8 mph - 0.01 in Rain Light Rain
5:18 AM 50.0 °F 48.2 °F 94% 30.46 in 2.5 mi ESE 4.6 mph - 0.05 in Rain Rain
5:26 AM 50.0 °F 48.2 °F 94% 30.46 in 3.0 mi ESE 4.6 mph - 0.06 in Rain Light Rain
5:53 AM 50.0 °F 48.9 °F 96% 30.46 in 7.0 mi ESE 5.8 mph - 0.08 in   Overcast
6:46 AM 48.2 °F 48.2 °F 100% 30.46 in 2.5 mi East 3.5 mph - 0.01 in   Overcast
6:53 AM 48.9 °F 48.9 °F 100% 30.46 in 2.5 mi East 3.5 mph - 0.02 in   Overcast
7:04 AM 48.2 °F 48.2 °F 100% 30.46 in 3.0 mi ESE 3.5 mph - N/A   Overcast
7:32 AM 48.2 °F 48.2 °F 100% 30.47 in 2.5 mi ESE 4.6 mph - N/A   Overcast
7:51 AM 48.2 °F 48.2 °F 100% 30.47 in 3.0 mi ESE 3.5 mph - 0.00 in Rain Light Rain
7:53 AM 48.9 °F 48.9 °F 100% 30.47 in 3.0 mi ESE 4.6 mph - 0.00 in Rain Light Rain
8:45 AM 48.2 °F 48.2 °F 100% 30.48 in 2.5 mi East 4.6 mph - 0.01 in Rain Light Rain
8:53 AM 48.9 °F 48.9 °F 100% 30.48 in 2.5 mi East 5.8 mph - 0.01 in Rain Light Rain
9:14 AM 48.2 °F 48.2 °F 100% 30.48 in 1.8 mi East 4.6 mph - 0.01 in Rain Light Rain
9:37 AM 48.2 °F 48.2 °F 100% 30.49 in 2.0 mi Calm Calm - 0.02 in   Overcast
9:53 AM 50.0 °F 48.9 °F 96% 30.49 in 2.5 mi Variable 3.5 mph - 0.02 in   Overcast
10:50 AM 50.0 °F 50.0 °F 100% 30.50 in 1.8 mi ESE 3.5 mph - 0.01 in   Overcast
10:53 AM 50.0 °F 50.0 °F 100% 30.50 in 1.8 mi East 4.6 mph - 0.01 in   Overcast
11:02 AM 50.0 °F 50.0 °F 100% 30.50 in 2.0 mi ESE 4.6 mph - 0.01 in   Overcast
11:29 AM 51.8 °F 50.0 °F 94% 30.50 in 1.5 mi ESE 5.8 mph - 0.01 in Rain Light Rain
11:50 AM 51.8 °F 51.8 °F 100% 30.51 in 2.0 mi ESE 3.5 mph - 0.02 in Rain Light Rain
11:53 AM 51.1 °F 51.1 °F 100% 30.51 in 2.0 mi ESE 3.5 mph - 0.02 in Rain Light Rain
12:06 PM 51.8 °F 51.8 °F 100% 30.50 in 1.5 mi ESE 3.5 mph - 0.01 in Rain Light Rain
12:17 PM 51.8 °F 51.8 °F 100% 30.50 in 1.2 mi East 4.6 mph - 0.01 in Rain Light Rain
12:28 PM 51.8 °F 51.8 °F 100% 30.51 in 1.5 mi East 4.6 mph - 0.02 in   Overcast
12:45 PM 51.8 °F 51.8 °F 100% 30.51 in 2.0 mi ESE 3.5 mph - 0.02 in   Overcast
12:53 PM 51.1 °F 51.1 °F 100% 30.51 in 1.5 mi ESE 5.8 mph - 0.02 in   Overcast
1:01 PM 51.8 °F 51.8 °F 100% 30.51 in 1.2 mi ESE 5.8 mph - 0.00 in   Light Drizzle
1:16 PM 51.8 °F 51.8 °F 100% 30.51 in 1.0 mi SE 6.9 mph - 0.00 in   Light Drizzle
1:32 PM 51.8 °F 51.8 °F 100% 30.51 in 1.8 mi SE 6.9 mph - 0.01 in   Light Drizzle
1:51 PM 51.8 °F 51.8 °F 100% 30.51 in 2.5 mi ESE 5.8 mph - 0.01 in   Light Drizzle
1:53 PM 52.0 °F 51.1 °F 97% 30.51 in 3.0 mi SE 6.9 mph - 0.01 in   Light Drizzle
2:23 PM 51.8 °F 51.8 °F 100% 30.51 in 2.5 mi ESE 5.8 mph - 0.00 in Rain Light Rain
2:30 PM 51.8 °F 51.8 °F 100% 30.51 in 2.0 mi SE 6.9 mph - 0.00 in Rain Light Rain
2:45 PM 51.8 °F 51.8 °F 100% 30.51 in 4.0 mi Variable 4.6 mph - 0.00 in Rain Light Rain
2:53 PM 52.0 °F 51.1 °F 97% 30.51 in 4.0 mi SE 4.6 mph - 0.00 in Rain Light Rain
3:14 PM 51.8 °F 51.8 °F 100% 30.50 in 2.0 mi SE 4.6 mph - 0.00 in Rain Light Rain
3:28 PM 51.8 °F 51.8 °F 100% 30.51 in 2.0 mi SE 4.6 mph - 0.01 in   Light Drizzle
3:42 PM 51.8 °F 51.8 °F 100% 30.50 in 1.5 mi Variable 3.5 mph - 0.01 in   Light Drizzle
3:53 PM 51.1 °F 51.1 °F 100% 30.50 in 1.5 mi SSE 5.8 mph - 0.01 in   Light Drizzle
4:21 PM 51.8 °F 51.8 °F 100% 30.49 in 2.5 mi SE 5.8 mph - 0.00 in   Light Drizzle
4:28 PM 51.8 °F 51.8 °F 100% 30.49 in 4.0 mi SE 5.8 mph - 0.00 in   Light Drizzle
4:43 PM 51.8 °F 51.8 °F 100% 30.49 in 2.0 mi SE 3.5 mph - 0.00 in   Light Drizzle
4:50 PM 51.8 °F 51.8 °F 100% 30.49 in 1.5 mi SSE 3.5 mph - 0.00 in   Light Drizzle
4:53 PM 51.1 °F 51.1 °F 100% 30.49 in 1.5 mi Calm Calm - 0.00 in   Light Drizzle
5:01 PM 51.8 °F 51.8 °F 100% 30.49 in 1.0 mi SSE 4.6 mph - 0.00 in   Light Drizzle
5:10 PM 51.8 °F 51.8 °F 100% 30.49 in 0.8 mi SE 3.5 mph - 0.00 in   Overcast
5:53 PM 51.1 °F 51.1 °F 100% 30.48 in 0.8 mi SSE 3.5 mph - 0.00 in   Mist
6:51 PM 50.0 °F 50.0 °F 100% 30.49 in 1.0 mi Calm Calm - N/A   Mist
6:53 PM 50.0 °F 50.0 °F 100% 30.49 in 0.8 mi Calm Calm - N/A   Mist
7:34 PM 50.0 °F 50.0 °F 100% 30.49 in 1.0 mi Calm Calm - N/A   Mist
7:53 PM 50.0 °F 50.0 °F 100% 30.48 in 1.0 mi Calm Calm - N/A   Mist
8:27 PM 50.0 °F 50.0 °F 100% 30.47 in 1.0 mi Calm Calm - N/A   Mist
8:41 PM 50.0 °F 50.0 °F 100% 30.48 in 1.0 mi Calm Calm - N/A   Mist
8:53 PM 50.0 °F 50.0 °F 100% 30.48 in 1.0 mi Calm Calm - N/A   Mist
9:01 PM 50.0 °F 50.0 °F 100% 30.48 in 0.8 mi Calm Calm - N/A   Mist
9:18 PM 50.0 °F 50.0 °F 100% 30.48 in 0.8 mi Calm Calm - N/A   Mist
9:36 PM 50.0 °F 50.0 °F 100% 30.48 in 1.0 mi Calm Calm - N/A   Mist
9:53 PM 50.0 °F 50.0 °F 100% 30.48 in 1.0 mi Calm Calm - N/A   Mist
10:04 PM 50.0 °F 50.0 °F 100% 30.47 in 0.8 mi Calm Calm - 0.01 in   Mist
10:45 PM 50.0 °F 50.0 °F 100% 30.48 in 0.5 mi Calm Calm - 0.01 in Fog Fog
10:53 PM 50.0 °F 50.0 °F 100% 30.48 in 0.5 mi Calm Calm - 0.01 in Fog Fog
11:11 PM 50.0 °F 50.0 °F 100% 30.47 in 0.2 mi Calm Calm - N/A Fog Fog
11:25 PM 50.0 °F 50.0 °F 100% 30.47 in 0.5 mi Calm Calm - N/A Fog Fog
11:37 PM 50.0 °F 50.0 °F 100% 30.48 in 0.8 mi Calm Calm - N/A   Mist
11:53 PM 50.0 °F 50.0 °F 100% 30.48 in 0.5 mi Calm Calm - N/A Fog Fog